Flag for Austria Weather past 2 weeks in Bruck an der Mur, Styria, Austria

Now
70 °F

Broken clouds.


Feels Like: 70 °F
Forecast: 56 / 71 °F
Wind: 6 mph from East

Location: Zeltweg

Current Time: Sep 2, 2015 at 1:34:48 PM

Latest Report: Sep 2, 2015 at 12:50 PM


Visibility: 19 mi

Pressure: 30.01 "Hg

Humidity: 57%

Dew point: 54 °F

Location of Bruck an der MurLocation

Historic Weather in Bruck an der Mur — Graph

°F

Bruck an der Mur temperature yesterday

Maximum temperature yesterday: 86 °F (at 3:20 PM)
Minimum temperature yesterday: 55 °F (at 6:50 AM)
Average temperature yesterday: 74 °F

Past Weeks' High & Low Weather Summary

 TemperatureHumidityPressure
High90 °F (Aug 29, 4:50 PM)100% (Aug 20, 4:50 AM)30.33 "Hg (Aug 20, 4:50 AM)
Low48 °F (Aug 23, 6:50 AM)21% (Aug 30, 3:20 PM)29.83 "Hg (Sep 1, 6:20 PM)
Average67 °F66%30.10 "Hg
* Reported Aug 18 12:20 PM — Sep 2 12:20 PM, Bruck an der Mur, Weather by CustomWeather, © 2015

Note: Actual official high and low records may vary slightly from our data, if they occured in-between our weather recording intervals... More about our weather records

Advertising

Bruck an der Mur weather history for previous 24 hours

 ConditionsComfort  
Time TempWeatherWind HumidityBarometerVisibility
12:20 PM
Wed, Sep 2
70 °FBroken clouds.5 mph60%30.01 "Hg19 mi
11:50 AM70 °FBroken clouds.6 mph57%30.01 "Hg19 mi
11:20 AM68 °FBroken clouds.3 mph64%30.01 "Hg19 mi
10:50 AM66 °FBroken clouds.1 mph64%30.01 "Hg19 mi
10:20 AM66 °FPartly sunny.2 mph68%30.01 "Hg19 mi
9:50 AM66 °FSprinkles. Partly sunny.1 mph64%30.01 "Hg16 mi
9:20 AM66 °FPartly sunny.1 mph64%30.01 "Hg19 mi
8:50 AM64 °FPartly sunny.1 mph68%30.01 "Hg25 mi
8:20 AM63 °FPartly sunny.2 mph73%30.01 "Hg25 mi
7:50 AM61 °FScattered clouds.1 mph77%30.01 "Hg25 mi
7:20 AM59 °FScattered clouds.2 mph77%30.01 "Hg25 mi
6:50 AM59 °FPassing clouds.1 mph77%29.98 "Hg19 mi
5:50 AM61 °FPassing clouds.2 mph72%29.98 "Hg9 mi
4:50 AM61 °FPassing clouds.2 mph72%29.95 "Hg9 mi
10:50 PM
Tue, Sep 1
64 °FPassing clouds.2 mph60%29.89 "Hg9 mi
9:50 PM63 °FPassing clouds.7 mph64%29.86 "Hg9 mi
8:50 PM63 °FPassing clouds.7 mph68%29.86 "Hg12 mi
8:20 PM68 °FPassing clouds.6 mph49%29.86 "Hg12 mi
7:50 PM75 °FPassing clouds.6 mph31%29.83 "Hg19 mi
7:20 PM77 °FPassing clouds.7 mph32%29.83 "Hg19 mi
6:50 PM81 °FPassing clouds.9 mph24%29.83 "Hg19 mi
6:20 PM82 °FPassing clouds.9 mph23%29.83 "Hg19 mi
5:50 PM82 °FPassing clouds.12 mph26%29.86 "Hg19 mi
5:20 PM84 °FPassing clouds.12 mph27%29.86 "Hg19 mi
4:50 PM84 °FPassing clouds.13 mph25%29.86 "Hg19 mi
3:50 PM84 °FPassing clouds.14 mph25%29.86 "Hg19 mi
3:20 PM86 °FPassing clouds.13 mph24%29.89 "Hg19 mi
2:50 PM84 °FPassing clouds.12 mph27%29.89 "Hg19 mi
2:20 PM84 °FPassing clouds.14 mph31%29.89 "Hg19 mi
1:50 PM84 °FPassing clouds.10 mph35%29.89 "Hg19 mi
1:20 PM82 °FPassing clouds.3 mph48%29.89 "Hg19 mi
Weather by CustomWeather, © 2015

See weather overviewHow to use our weather pages